Time,TemperatureF,DewpointF,PressureIn,WindDirection,WindDirectionDegrees,WindSpeedMPH,WindSpeedGustMPH,Humidity,HourlyPrecipIn,Conditions,Clouds,dailyrainin,SoftwareType,DateUTC
2013-07-13 00:02:00,57.0,-99.9,29.97,South,189,10.0,15.0,-999,-99.99,,,-99.99,,2013-07-13 08:02:00,
2013-07-13 00:33:00,57.0,-99.9,29.98,South,180,9.0,11.0,-999,-99.99,,,-99.99,,2013-07-13 08:33:00,
2013-07-13 00:43:00,57.0,-99.9,29.98,South,187,9.0,13.0,-999,-99.99,,,-99.99,,2013-07-13 08:43:00,
2013-07-13 00:52:00,57.0,-99.9,29.98,South,187,11.0,14.0,-999,-99.99,,,-99.99,,2013-07-13 08:52:00,
2013-07-13 01:02:00,57.0,-99.9,29.98,South,189,10.0,14.0,-999,-99.99,,,-99.99,,2013-07-13 09:02:00,
2013-07-13 01:11:00,57.0,-99.9,29.98,South,188,11.0,14.0,-999,-99.99,,,-99.99,,2013-07-13 09:11:00,
2013-07-13 01:33:00,56.0,-99.9,29.98,South,176,9.0,12.0,-999,-99.99,,,-99.99,,2013-07-13 09:33:00,
2013-07-13 01:43:00,56.0,-99.9,29.98,South,185,11.0,14.0,-999,-99.99,,,-99.99,,2013-07-13 09:43:00,
2013-07-13 01:53:00,56.0,-99.9,29.98,South,184,11.0,14.0,-999,-99.99,,,-99.99,,2013-07-13 09:53:00,
2013-07-13 02:01:00,57.0,-99.9,29.99,South,184,10.0,15.0,-999,-99.99,,,-99.99,,2013-07-13 10:01:00,
2013-07-13 02:32:00,56.0,-99.9,29.99,South,188,9.0,12.0,-999,-99.99,,,-99.99,,2013-07-13 10:32:00,
2013-07-13 02:43:00,56.0,-99.9,29.99,South,189,9.0,14.0,-999,-99.99,,,-99.99,,2013-07-13 10:43:00,
2013-07-13 02:52:00,56.0,-99.9,29.99,SSW,195,8.0,11.0,-999,-99.99,,,-99.99,,2013-07-13 10:52:00,
2013-07-13 03:02:00,56.0,-99.9,29.99,SSW,204,10.0,11.0,-999,-99.99,,,-99.99,,2013-07-13 11:02:00,
2013-07-13 03:11:00,56.0,-99.9,29.99,SSW,192,10.0,14.0,-999,-99.99,,,-99.99,,2013-07-13 11:11:00,
2013-07-13 03:43:00,56.0,-99.9,29.99,South,190,10.0,14.0,-999,-99.99,,,-99.99,,2013-07-13 11:43:00,
2013-07-13 03:52:00,56.0,-99.9,29.99,SSW,194,11.0,14.0,-999,-99.99,,,-99.99,,2013-07-13 11:52:00,
2013-07-13 04:02:00,55.0,-99.9,29.99,SSW,195,12.0,14.0,-999,-99.99,,,-99.99,,2013-07-13 12:02:00,
2013-07-13 04:32:00,55.0,-99.9,29.99,SSW,197,11.0,13.0,-999,-99.99,,,-99.99,,2013-07-13 12:32:00,
2013-07-13 04:43:00,54.0,-99.9,30.00,SSW,202,10.0,12.0,-999,-99.99,,,-99.99,,2013-07-13 12:43:00,
2013-07-13 05:12:00,54.0,-99.9,30.00,SSW,192,10.0,12.0,-999,-99.99,,,-99.99,,2013-07-13 13:12:00,
2013-07-13 05:22:00,54.0,-99.9,30.00,South,189,11.0,14.0,-999,-99.99,,,-99.99,,2013-07-13 13:22:00,
2013-07-13 05:43:00,54.0,-99.9,30.00,South,189,12.0,14.0,-999,-99.99,,,-99.99,,2013-07-13 13:43:00,
2013-07-13 05:53:00,54.0,-99.9,30.00,South,187,11.0,14.0,-999,-99.99,,,-99.99,,2013-07-13 13:53:00,
2013-07-13 06:02:00,54.0,-99.9,30.00,South,187,12.0,15.0,-999,-99.99,,,-99.99,,2013-07-13 14:02:00,
2013-07-13 06:53:00,53.0,-99.9,30.02,South,191,13.0,15.0,-999,-99.99,,,-99.99,,2013-07-13 14:53:00,
2013-07-13 07:02:00,53.0,-99.9,30.02,SSW,198,13.0,16.0,-999,-99.99,,,-99.99,,2013-07-13 15:02:00,
2013-07-13 07:12:00,53.0,-99.9,30.02,SSW,194,13.0,16.0,-999,-99.99,,,-99.99,,2013-07-13 15:12:00,
2013-07-13 08:02:00,52.0,-99.9,30.02,SSW,196,14.0,17.0,-999,-99.99,,,-99.99,,2013-07-13 16:02:00,
2013-07-13 08:33:00,53.0,-99.9,30.03,South,191,12.0,15.0,-999,-99.99,,,-99.99,,2013-07-13 16:33:00,
2013-07-13 08:43:00,53.0,-99.9,30.04,South,188,10.0,14.0,-999,-99.99,,,-99.99,,2013-07-13 16:43:00,
2013-07-13 08:53:00,53.0,-99.9,30.04,South,188,9.0,13.0,-999,-99.99,,,-99.99,,2013-07-13 16:53:00,
2013-07-13 09:01:00,53.0,-99.9,30.04,South,187,9.0,13.0,-999,-99.99,,,-99.99,,2013-07-13 17:01:00,
2013-07-13 09:33:00,54.0,-99.9,30.05,South,187,7.0,11.0,-999,-99.99,,,-99.99,,2013-07-13 17:33:00,
2013-07-13 09:43:00,54.0,-99.9,30.05,South,186,8.0,10.0,-999,-99.99,,,-99.99,,2013-07-13 17:43:00,
2013-07-13 10:02:00,54.0,-99.9,30.05,South,189,8.0,11.0,-999,-99.99,,,-99.99,,2013-07-13 18:02:00,
2013-07-13 10:32:00,54.0,-99.9,30.06,SSW,198,11.0,15.0,-999,-99.99,,,-99.99,,2013-07-13 18:32:00,
2013-07-13 10:44:00,54.0,-99.9,30.06,SSW,196,11.0,14.0,-999,-99.99,,,-99.99,,2013-07-13 18:44:00,
2013-07-13 11:02:00,54.0,-99.9,30.06,SSW,194,13.0,14.0,-999,-99.99,,,-99.99,,2013-07-13 19:02:00,
2013-07-13 11:32:00,55.0,-99.9,30.06,South,187,10.0,14.0,-999,-99.99,,,-99.99,,2013-07-13 19:32:00,
2013-07-13 11:44:00,55.0,-99.9,30.07,South,187,10.0,15.0,-999,-99.99,,,-99.99,,2013-07-13 19:44:00,
2013-07-13 11:52:00,55.0,-99.9,30.07,South,190,9.0,14.0,-999,-99.99,,,-99.99,,2013-07-13 19:52:00,
2013-07-13 12:02:00,55.0,-99.9,30.07,SSW,195,13.0,15.0,-999,-99.99,,,-99.99,,2013-07-13 20:02:00,
2013-07-13 12:11:00,55.0,-99.9,30.07,SSW,193,12.0,16.0,-999,-99.99,,,-99.99,,2013-07-13 20:11:00,
2013-07-13 12:33:00,55.0,-99.9,30.07,SSW,192,14.0,16.0,-999,-99.99,,,-99.99,,2013-07-13 20:33:00,
2013-07-13 12:43:00,55.0,-99.9,30.08,South,190,14.0,17.0,-999,-99.99,,,-99.99,,2013-07-13 20:43:00,
2013-07-13 12:53:00,55.0,-99.9,30.08,SSW,195,14.0,16.0,-999,-99.99,,,-99.99,,2013-07-13 20:53:00,
2013-07-13 13:02:00,55.0,-99.9,30.08,SSW,203,14.0,16.0,-999,-99.99,,,-99.99,,2013-07-13 21:02:00,
2013-07-13 13:12:00,55.0,-99.9,30.08,SSW,205,12.0,14.0,-999,-99.99,,,-99.99,,2013-07-13 21:12:00,
2013-07-13 13:32:00,55.0,-99.9,30.09,SSW,212,8.0,11.0,-999,-99.99,,,-99.99,,2013-07-13 21:32:00,
2013-07-13 13:43:00,55.0,-99.9,30.09,SSW,206,8.0,10.0,-999,-99.99,,,-99.99,,2013-07-13 21:43:00,
2013-07-13 13:53:00,55.0,-99.9,30.09,SSW,213,8.0,11.0,-999,-99.99,,,-99.99,,2013-07-13 21:53:00,
2013-07-13 14:01:00,55.0,-99.9,30.09,SSW,204,11.0,14.0,-999,-99.99,,,-99.99,,2013-07-13 22:01:00,
2013-07-13 14:32:00,56.0,-99.9,30.10,South,185,11.0,14.0,-999,-99.99,,,-99.99,,2013-07-13 22:32:00,
2013-07-13 14:43:00,55.0,-99.9,30.10,South,185,13.0,17.0,-999,-99.99,,,-99.99,,2013-07-13 22:43:00,
2013-07-13 14:53:00,56.0,-99.9,30.10,South,184,12.0,18.0,-999,-99.99,,,-99.99,,2013-07-13 22:53:00,
2013-07-13 15:02:00,56.0,-99.9,30.10,South,185,12.0,16.0,-999,-99.99,,,-99.99,,2013-07-13 23:02:00,
2013-07-13 15:11:00,56.0,-99.9,30.10,South,188,11.0,14.0,-999,-99.99,,,-99.99,,2013-07-13 23:11:00,
2013-07-13 15:33:00,55.0,-99.9,30.10,SSW,192,12.0,15.0,-999,-99.99,,,-99.99,,2013-07-13 23:33:00,
2013-07-13 15:42:00,55.0,-99.9,30.10,SSW,195,13.0,17.0,-999,-99.99,,,-99.99,,2013-07-13 23:42:00,
2013-07-13 15:53:00,56.0,-99.9,30.10,South,191,10.0,17.0,-999,-99.99,,,-99.99,,2013-07-13 23:53:00,
2013-07-13 16:01:00,56.0,-99.9,30.10,South,187,11.0,17.0,-999,-99.99,,,-99.99,,2013-07-14 00:01:00,
2013-07-13 16:22:00,55.0,-99.9,30.10,South,191,13.0,15.0,-999,-99.99,,,-99.99,,2013-07-14 00:22:00,
2013-07-13 16:33:00,55.0,-99.9,30.11,South,188,11.0,15.0,-999,-99.99,,,-99.99,,2013-07-14 00:33:00,
2013-07-13 16:42:00,56.0,-99.9,30.11,South,184,12.0,16.0,-999,-99.99,,,-99.99,,2013-07-14 00:42:00,
2013-07-13 17:02:00,55.0,-99.9,30.11,South,188,13.0,16.0,-999,-99.99,,,-99.99,,2013-07-14 01:02:00,
2013-07-13 17:11:00,55.0,-99.9,30.11,South,189,12.0,15.0,-999,-99.99,,,-99.99,,2013-07-14 01:11:00,
2013-07-13 17:43:00,54.0,-99.9,30.11,SSW,194,12.0,15.0,-999,-99.99,,,-99.99,,2013-07-14 01:43:00,
2013-07-13 17:52:00,54.0,-99.9,30.11,SSW,194,15.0,16.0,-999,-99.99,,,-99.99,,2013-07-14 01:52:00,
2013-07-13 18:02:00,54.0,-99.9,30.11,South,190,15.0,17.0,-999,-99.99,,,-99.99,,2013-07-14 02:02:00,
2013-07-13 18:11:00,54.0,-99.9,30.11,South,190,16.0,17.0,-999,-99.99,,,-99.99,,2013-07-14 02:11:00,
2013-07-13 18:32:00,54.0,-99.9,30.12,South,190,15.0,19.0,-999,-99.99,,,-99.99,,2013-07-14 02:32:00,
2013-07-13 18:43:00,54.0,-99.9,30.12,SSW,197,15.0,18.0,-999,-99.99,,,-99.99,,2013-07-14 02:43:00,
2013-07-13 18:53:00,54.0,-99.9,30.12,SSW,195,16.0,18.0,-999,-99.99,,,-99.99,,2013-07-14 02:53:00,
2013-07-13 19:02:00,54.0,-99.9,30.12,SSW,202,14.0,17.0,-999,-99.99,,,-99.99,,2013-07-14 03:02:00,
2013-07-13 19:11:00,54.0,-99.9,30.12,SSW,202,14.0,17.0,-999,-99.99,,,-99.99,,2013-07-14 03:11:00,
2013-07-13 19:32:00,54.0,-99.9,30.13,SSW,194,15.0,18.0,-999,-99.99,,,-99.99,,2013-07-14 03:32:00,
2013-07-13 19:43:00,54.0,-99.9,30.13,SSW,195,15.0,18.0,-999,-99.99,,,-99.99,,2013-07-14 03:43:00,
2013-07-13 19:53:00,54.0,-99.9,30.13,SSW,194,15.0,17.0,-999,-99.99,,,-99.99,,2013-07-14 03:53:00,
2013-07-13 20:02:00,54.0,-99.9,30.13,SSW,196,14.0,17.0,-999,-99.99,,,-99.99,,2013-07-14 04:02:00,
2013-07-13 20:11:00,54.0,-99.9,30.13,SSW,199,15.0,17.0,-999,-99.99,,,-99.99,,2013-07-14 04:11:00,
2013-07-13 20:32:00,54.0,-99.9,30.14,SSW,193,15.0,17.0,-999,-99.99,,,-99.99,,2013-07-14 04:32:00,
2013-07-13 20:42:00,54.0,-99.9,30.14,SSW,192,17.0,18.0,-999,-99.99,,,-99.99,,2013-07-14 04:42:00,
2013-07-13 20:54:00,53.0,-99.9,30.14,SSW,192,17.0,18.0,-999,-99.99,,,-99.99,,2013-07-14 04:54:00,
2013-07-13 21:02:00,53.0,-99.9,30.14,South,189,16.0,17.0,-999,-99.99,,,-99.99,,2013-07-14 05:02:00,
2013-07-13 21:32:00,53.0,-99.9,30.15,SSW,202,17.0,19.0,-999,-99.99,,,-99.99,,2013-07-14 05:32:00,
2013-07-13 21:43:00,53.0,-99.9,30.15,SSW,200,15.0,18.0,-999,-99.99,,,-99.99,,2013-07-14 05:43:00,
2013-07-13 21:53:00,53.0,-99.9,30.15,SSW,201,15.0,17.0,-999,-99.99,,,-99.99,,2013-07-14 05:53:00,
2013-07-13 22:01:00,53.0,-99.9,30.16,SSW,202,14.0,17.0,-999,-99.99,,,-99.99,,2013-07-14 06:01:00,
2013-07-13 22:12:00,53.0,-99.9,30.16,SSW,203,14.0,16.0,-999,-99.99,,,-99.99,,2013-07-14 06:12:00,
2013-07-13 22:32:00,53.0,-99.9,30.16,SSW,192,14.0,17.0,-999,-99.99,,,-99.99,,2013-07-14 06:32:00,
2013-07-13 22:42:00,53.0,-99.9,30.16,South,191,16.0,18.0,-999,-99.99,,,-99.99,,2013-07-14 06:42:00,
2013-07-13 22:53:00,53.0,-99.9,30.16,South,191,16.0,19.0,-999,-99.99,,,-99.99,,2013-07-14 06:53:00,
2013-07-13 23:02:00,53.0,-99.9,30.17,SSW,192,17.0,19.0,-999,-99.99,,,-99.99,,2013-07-14 07:02:00,
2013-07-13 23:12:00,53.0,-99.9,30.17,SSW,192,17.0,19.0,-999,-99.99,,,-99.99,,2013-07-14 07:12:00,
2013-07-13 23:33:00,53.0,-99.9,30.17,SSW,198,17.0,19.0,-999,-99.99,,,-99.99,,2013-07-14 07:33:00,
2013-07-13 23:43:00,53.0,-99.9,30.17,SSW,199,17.0,19.0,-999,-99.99,,,-99.99,,2013-07-14 07:43:00,
2013-07-13 23:53:00,53.0,-99.9,30.18,SSW,199,17.0,20.0,-999,-99.99,,,-99.99,,2013-07-14 07:53:00,